Location: St. Louis
(38.6270°N, 90.1994°W)
Time: 07:35:06
(UTC-06:00)

Transit 2A Rocket - Pass Details

Date: 07 December 2021
Orbit: 584 x 917 km, 66.7° (Epoch: 23 January)

Event Time Altitude Azimuth Distance (km) Brightness Sun altitude
Rises 04:52:52 0° 151° (SSE) 3,267 8.8 -25.2°
Reaches altitude 10° 04:56:52 10° 122° (ESE) 2,425 8.5 -24.4°
Maximum altitude 04:58:55 12° 100° (E) 2,321 8.5 -24.0°
Drops below altitude 10° 05:01:01 10° 79° (E) 2,502 8.6 -23.6°
Sets 05:05:17 0° 50° (NE) 3,504 9.0 -22.8°
